• In Hungary
  • List of Countries
  • For 7 days
  • Water Temperature
  • Satellite Maps
  • Weather Map
  • News
  • Weather Widgets
  • user-avatar
    Login

    Hourly Weather Sharh

    Today, 23 September, Saturday

    Time Temperature Precipitation Wind Pressure Humidity
    00:00 +27°C° 0 mm 5 mps 755 mmHg 93%
    01:00 +27°C° 0 mm 5 mps 755 mmHg 94%
    02:00 +27°C° 0 mm 5 mps 755 mmHg 94%
    03:00 +27°C° 0 mm 5 mps 755 mmHg 93%
    04:00 +27°C° 0 mm 5 mps 755 mmHg 91%
    05:00 +27°C° 0 mm 5 mps 755 mmHg 90%
    06:00 +27°C° 0 mm 5 mps 755 mmHg 89%
    07:00 +28°C° 0 mm 5 mps 756 mmHg 88%
    08:00 +30°C° 0 mm 5 mps 756 mmHg 75%
    09:00 +33°C° 0 mm 4 mps 756 mmHg 62%
    10:00 +35°C° 0 mm 4 mps 756 mmHg 52%
    11:00 +36°C° 0 mm 4 mps 756 mmHg 45%
    12:00 +39°C° 0 mm 5 mps 756 mmHg 38%
    13:00 +40°C° 0 mm 6 mps 755 mmHg 32%
    14:00 +40°C° 0 mm 6 mps 755 mmHg 34%
    15:00 +39°C° 0 mm 6 mps 755 mmHg 37%
    16:00 +39°C° 0 mm 7 mps 755 mmHg 36%
    17:00 +36°C° 0 mm 7 mps 755 mmHg 46%
    18:00 +34°C° 0 mm 6 mps 755 mmHg 56%
    19:00 +32°C° 0 mm 6 mps 755 mmHg 66%
    20:00 +30°C° 0 mm 6 mps 755 mmHg 71%
    21:00 +29°C° 0 mm 6 mps 756 mmHg 76%
    22:00 +28°C° 0 mm 6 mps 756 mmHg 81%
    23:00 +28°C° 0 mm 6 mps 756 mmHg 84%

    Tomorrow, 24 September, Sunday

    Time Temperature Precipitation Wind Pressure Humidity
    00:00 +27°C° 0 mm 5 mps 756 mmHg 87%
    01:00 +27°C° 0 mm 5 mps 755 mmHg 90%
    02:00 +27°C° 0 mm 5 mps 756 mmHg 92%
    03:00 +26°C° 0 mm 4 mps 756 mmHg 93%
    04:00 +26°C° 0 mm 4 mps 756 mmHg 94%
    05:00 +27°C° 0 mm 4 mps 756 mmHg 92%
    06:00 +27°C° 0 mm 5 mps 756 mmHg 89%
    07:00 +27°C° 0 mm 5 mps 757 mmHg 87%
    08:00 +29°C° 0 mm 5 mps 757 mmHg 74%
    09:00 +32°C° 0 mm 5 mps 757 mmHg 61%
    10:00 +35°C° 0 mm 5 mps 757 mmHg 48%
    11:00 +36°C° 0 mm 5 mps 757 mmHg 43%
    12:00 +39°C° 0 mm 5 mps 756 mmHg 38%
    13:00 +40°C° 0 mm 6 mps 756 mmHg 33%
    14:00 +40°C° 0 mm 6 mps 756 mmHg 34%
    15:00 +40°C° 0 mm 7 mps 755 mmHg 36%
    16:00 +39°C° 0 mm 7 mps 755 mmHg 37%
    17:00 +36°C° 0 mm 7 mps 755 mmHg 45%
    18:00 +34°C° 0 mm 7 mps 755 mmHg 53%
    19:00 +32°C° 0 mm 7 mps 756 mmHg 61%
    20:00 +30°C° 0 mm 7 mps 756 mmHg 65%
    21:00 +30°C° 0 mm 6 mps 756 mmHg 69%
    22:00 +29°C° 0 mm 6 mps 756 mmHg 73%
    23:00 +29°C° 0 mm 5 mps 756 mmHg 76%

    Day after tomorrow, 25 September, Monday

    Time Temperature Precipitation Wind Pressure Humidity
    00:00 +28°C° 0 mm 5 mps 756 mmHg 79%
    01:00 +28°C° 0 mm 5 mps 756 mmHg 82%
    02:00 +27°C° 0 mm 5 mps 756 mmHg 83%
    03:00 +27°C° 0 mm 5 mps 755 mmHg 85%
    04:00 +27°C° 0 mm 5 mps 755 mmHg 86%
    05:00 +27°C° 0 mm 5 mps 756 mmHg 85%
    06:00 +27°C° 0 mm 4 mps 756 mmHg 83%
    07:00 +27°C° 0 mm 4 mps 756 mmHg 82%
    08:00 +30°C° 0 mm 4 mps 756 mmHg 69%
    09:00 +33°C° 0 mm 4 mps 757 mmHg 56%
    10:00 +35°C° 0 mm 4 mps 757 mmHg 43%
    11:00 +37°C° 0 mm 5 mps 756 mmHg 38%
    12:00 +39°C° 0 mm 5 mps 755 mmHg 33%
    13:00 +41°C° 0 mm 5 mps 755 mmHg 28%
    14:00 +41°C° 0 mm 6 mps 754 mmHg 30%
    15:00 +40°C° 0 mm 7 mps 754 mmHg 32%
    16:00 +40°C° 0 mm 7 mps 754 mmHg 34%
    17:00 +38°C° 0 mm 7 mps 754 mmHg 42%
    18:00 +34°C° 0 mm 7 mps 754 mmHg 51%
    19:00 +32°C° 0 mm 7 mps 754 mmHg 60%
    20:00 +32°C° 0 mm 7 mps 755 mmHg 63%
    21:00 +30°C° 0 mm 6 mps 755 mmHg 66%
    22:00 +29°C° 0 mm 5 mps 755 mmHg 69%
    23:00 +29°C° 0 mm 5 mps 755 mmHg 72%

    26 September, Tuesday

    Time Temperature Precipitation Wind Pressure Humidity
    00:00 +28°C° 0 mm 5 mps 755 mmHg 74%
    01:00 +28°C° 0 mm 4 mps 755 mmHg 77%
    02:00 +27°C° 0 mm 4 mps 755 mmHg 79%
    03:00 +27°C° 0 mm 4 mps 755 mmHg 81%
    04:00 +27°C° 0 mm 4 mps 754 mmHg 83%
    05:00 +27°C° 0 mm 4 mps 755 mmHg 81%
    06:00 +27°C° 0 mm 3 mps 755 mmHg 78%
    07:00 +27°C° 0 mm 3 mps 756 mmHg 76%
    08:00 +30°C° 0 mm 3 mps 756 mmHg 63%
    09:00 +33°C° 0 mm 3 mps 756 mmHg 50%
    10:00 +35°C° 0 mm 3 mps 756 mmHg 37%
    11:00 +37°C° 0 mm 4 mps 756 mmHg 33%
    12:00 +38°C° 0 mm 4 mps 755 mmHg 29%
    13:00 +41°C° 0 mm 5 mps 755 mmHg 24%
    14:00 +41°C° 0 mm 5 mps 754 mmHg 26%
    15:00 +40°C° 0 mm 6 mps 754 mmHg 28%
    16:00 +40°C° 0 mm 7 mps 754 mmHg 29%
    17:00 +38°C° 0 mm 7 mps 754 mmHg 38%
    18:00 +34°C° 0 mm 7 mps 754 mmHg 47%
    19:00 +32°C° 0 mm 7 mps 755 mmHg 56%
    20:00 +30°C° 0 mm 7 mps 755 mmHg 60%
    21:00 +30°C° 0 mm 6 mps 756 mmHg 65%
    22:00 +29°C° 0 mm 6 mps 756 mmHg 70%
    23:00 +28°C° 0 mm 5 mps 756 mmHg 73%

    27 September, Wednesday

    Time Temperature Precipitation Wind Pressure Humidity
    00:00 +28°C° 0 mm 5 mps 756 mmHg 76%
    01:00 +27°C° 0 mm 4 mps 755 mmHg 80%
    02:00 +27°C° 0 mm 4 mps 755 mmHg 83%
    03:00 +26°C° 0 mm 4 mps 755 mmHg 86%
    04:00 +26°C° 0 mm 3 mps 755 mmHg 89%
    05:00 +26°C° 0 mm 3 mps 756 mmHg 87%
    06:00 +26°C° 0 mm 3 mps 756 mmHg 84%
    07:00 +27°C° 0 mm 2 mps 757 mmHg 82%
    08:00 +29°C° 0 mm 3 mps 757 mmHg 67%
    09:00 +33°C° 0 mm 3 mps 757 mmHg 52%
    10:00 +35°C° 0 mm 4 mps 758 mmHg 36%
    11:00 +37°C° 0 mm 4 mps 757 mmHg 32%
    12:00 +38°C° 0 mm 4 mps 756 mmHg 27%
    13:00 +41°C° 0 mm 5 mps 756 mmHg 23%
    14:00 +40°C° 0 mm 5 mps 755 mmHg 25%
    15:00 +40°C° 0 mm 6 mps 755 mmHg 28%
    16:00 +39°C° 0 mm 7 mps 755 mmHg 31%
    17:00 +36°C° 0 mm 7 mps 755 mmHg 40%
    18:00 +34°C° 0 mm 7 mps 755 mmHg 49%
    19:00 +32°C° 0 mm 6 mps 755 mmHg 58%
    20:00 +30°C° 0 mm 6 mps 756 mmHg 63%
    21:00 +29°C° 0 mm 5 mps 756 mmHg 67%
    22:00 +28°C° 0 mm 5 mps 756 mmHg 72%
    23:00 +28°C° 0 mm 5 mps 756 mmHg 75%

    28 September, Thursday

    Time Temperature Precipitation Wind Pressure Humidity
    00:00 +27°C° 0 mm 5 mps 756 mmHg 78%
    01:00 +27°C° 0 mm 5 mps 755 mmHg 81%
    02:00 +26°C° 0 mm 4 mps 755 mmHg 84%
    03:00 +26°C° 0 mm 4 mps 755 mmHg 86%
    04:00 +26°C° 0 mm 4 mps 755 mmHg 88%
    05:00 +26°C° 0 mm 4 mps 756 mmHg 86%
    06:00 +26°C° 0 mm 3 mps 756 mmHg 84%
    07:00 +26°C° 0 mm 3 mps 757 mmHg 82%
    08:00 +29°C° 0 mm 3 mps 757 mmHg 68%
    09:00 +31°C° 0 mm 3 mps 757 mmHg 53%
    10:00 +35°C° 0 mm 4 mps 757 mmHg 38%
    11:00 +36°C° 0 mm 4 mps 756 mmHg 33%
    12:00 +38°C° 0 mm 4 mps 756 mmHg 28%
    13:00 +41°C° 0 mm 5 mps 755 mmHg 23%
    14:00 +40°C° 0 mm 5 mps 755 mmHg 24%
    15:00 +40°C° 0 mm 6 mps 754 mmHg 26%
    16:00 +40°C° 0 mm 7 mps 754 mmHg 28%
    17:00 +38°C° 0 mm 7 mps 754 mmHg 37%
    18:00 +34°C° 0 mm 7 mps 755 mmHg 47%
    19:00 +32°C° 0 mm 7 mps 755 mmHg 57%
    20:00 +30°C° 0 mm 6 mps 755 mmHg 61%
    21:00 +29°C° 0 mm 6 mps 756 mmHg 66%
    22:00 +29°C° 0 mm 5 mps 756 mmHg 71%
    23:00 +28°C° 0 mm 5 mps 755 mmHg 74%
    Show more